DW2889 Weather Reports


time (UTC)temp
C
wind
direction
speed
KPH
gust
KPH
rain 1hr
cm
rain 24hr
cm
rain mn
cm
humidity
%
barometer
mb
20260503181558 22 59 6.4 16.1 0.00 0.00 0.00 59 1010.3
20260503180059 22 360 4.8 11.3 0.00 0.00 0.00 59 1010.5
20260503174552 22 82 4.8 11.3 0.00 0.00 0.00 62 1010.6
20260503173109 22 81 4.8 14.5 0.00 0.00 0.00 61 1010.7
20260503171551 21 61 3.2 14.5 0.00 0.00 0.00 64 1010.8
20260503110110 13 39 3.2 6.4 0.00 0.00 0.00 91 1011.1
20260503100106 13 49 0.0 4.8 0.00 0.00 0.00 91 1011.3
20260503081547 13 46 0.0 3.2 0.00 0.03 0.00 88 1011.7
20260503071547 14 360 0.0 3.2 0.00 0.03 0.00 87 1011.8
20260503054540 15 31 0.0 3.2 0.00 0.03 0.03 84 1011.8
20260503053034 15 355 1.6 6.4 0.00 0.03 0.03 83 1011.7
20260503051534 15 52 1.6 6.4 0.00 0.03 0.03 83 1011.5
20260503050034 15 76 3.2 8.0 0.00 0.03 0.03 83 1011.7
20260503044535 15 22 3.2 8.0 0.00 0.03 0.03 83 1011.7
20260503043031 15 112 0.0 4.8 0.00 0.03 0.03 82 1011.9
20260503041531 15 74 0.0 3.2 0.00 0.03 0.03 82 1011.4
20260503040031 16 34 0.0 1.6 0.00 0.03 0.03 81 1011.4
20260503034531 16 34 0.0 3.2 0.00 0.03 0.03 80 1011.5
20260503033041 16 111 1.6 4.8 0.00 0.03 0.03 80 1011.6
20260503031529 16 78 0.0 3.2 0.00 0.03 0.03 79 1011.3
20260503030029 16 347 0.0 6.4 0.00 0.03 0.03 79 1011.0
20260503024528 17 261 0.0 6.4 0.00 0.03 0.03 77 1011.3
20260503023028 17 306 3.2 16.1 0.00 0.03 0.03 76 1011.4
20260503021528 17 273 3.2 17.7 0.00 0.03 0.03 74 1011.6
20260503020026 18 252 9.7 24.1 0.00 0.03 0.03 72 1011.5
20260503014540 19 203 4.8 11.3 0.00 0.03 0.03 71 1011.0
20260503013028 20 225 0.0 4.8 0.00 0.03 0.03 70 1010.8
20260503011523 20 286 0.0 6.4 0.00 0.03 0.03 69 1010.8
20260503010023 20 314 0.0 6.4 0.00 0.03 0.03 67 1010.7
20260503004527 21 285 1.6 4.8 0.00 0.03 0.03 66 1010.6
20260503003021 21 43 0.0 3.2 0.00 0.03 0.03 63 1010.5
20260503001524 21 216 0.0 3.2 0.00 0.03 0.03 65 1010.5
20260503000019 21 223 0.0 4.8 0.00 0.03 0.03 65 1010.6
20260502234518 21 148 1.6 6.4 0.00 0.03 0.03 62 1010.8
20260502233015 21 40 1.6 6.4 0.00 0.03 0.03 61 1011.0
20260502231516 21 76 4.8 12.9 0.00 0.03 0.03 62 1011.2
20260502230015 20 86 3.2 6.4 0.00 0.03 0.03 65 1011.4
20260502224508 19 27 1.6 9.7 0.00 0.03 0.03 65 1011.6
20260502223006 19 5 1.6 6.4 0.00 0.03 0.03 65 1011.8
20260502221503 19 255 1.6 6.4 0.00 0.03 0.03 66 1012.0
20260502220002 20 94 3.2 11.3 0.00 0.03 0.03 62 1012.2
20260502214558 19 9 1.6 9.7 0.00 0.03 0.03 66 1012.5
20260502213109 18 145 1.6 8.0 0.00 0.03 0.03 68 1012.6
20260502211615 18 85 3.2 8.0 0.00 0.03 0.03 66 1012.9
20260502210048 18 96 3.2 11.3 0.00 0.03 0.03 68 1012.9
20260502204546 18 338 4.8 12.9 0.00 0.03 0.03 71 1013.2
20260502203041 17 139 1.6 8.0 0.00 0.03 0.03 72 1013.6
20260502201537 16 273 3.2 8.0 0.00 0.03 0.03 74 1013.6
20260502200034 15 109 1.6 6.4 0.00 0.03 0.03 76 1013.8
20260502194529 15 263 1.6 16.1 0.00 0.03 0.03 78 1014.0
20260502193026 14 65 3.2 16.1 0.00 0.03 0.03 78 1014.0
20260502191521 13 98 3.2 12.9 0.00 0.03 0.03 82 1014.2
20260502190021 13 301 3.2 8.0 0.00 0.03 0.03 82 1014.7
20260502184526 12 114 1.6 9.7 0.00 0.03 0.03 82 1014.7
20260502183033 12 71 3.2 16.1 0.00 0.03 0.03 84 1014.4